Location: Dick
(40.6333°S, 175.4667°E)
Time: 15:18:48
(UTC+00:00)

Daily predictions for brighter satellites

Satellite Brightness Start Highest point End
(mag) Time Altitude Azimuth Time Altitude Azimuth Time Altitude Azimuth
USA 59 Rocket 3.7 15:15:11 21° SSE 15:15:11 21° SSE 15:21:25 10° ESE
ATLAS 5 CENTAUR R/B 4.3 16:09:24 54° NNE 16:09:24 54° NNE 16:23:45 10° NNE
Cosmos 2369 Rocket 4.0 16:09:35 27° ESE 16:09:35 27° ESE 16:13:32 10° ENE
Cosmos 1943 4.4 16:35:56 20° NNE 16:39:13 39° ENE 16:44:29 10° SE
ATLAS 3B R/B 4.2 16:49:09 20° N 16:49:09 20° N 16:51:03 10° N
USA 229 DEB 3.4 16:51:29 77° NE 16:51:29 77° NE 16:57:01 10° NE
USA 229 3.4 16:51:35 77° NE 16:51:35 77° NE 16:57:08 10° NE
Cosmos 2061 Rocket 3.9 17:03:46 69° SSW 17:04:33 81° W 17:11:00 10° N
USA 59 Rocket 2.7 17:01:45 19° SSW 17:08:22 40° SE 17:15:35 10° ENE
PSLV R/B 4.1 17:06:57 10° NNE 17:11:09 55° ESE 17:11:19 54° ESE
DMSP B5D2-2 4.0 17:09:11 10° SSE 17:18:03 21° NNW 17:19:45 10° NNW
SL-19 R/B 4.4 17:08:38 10° N 17:14:56 67° WNW 17:15:38 62° WSW
OAO 3 Rocket 4.0 17:16:05 43° N 17:16:05 43° N 17:20:36 10° ENE
USA 215 3.5 17:11:14 10° NNE 17:17:29 47° NW 17:17:48 47° WNW
SL-8 R/B 4.3 17:22:42 45° S 17:22:59 46° SSE 17:27:39 10° E
Meteor 1-20 Rocket 4.1 17:23:48 35° SSW 17:26:21 83° W 17:32:04 10° N
Lacrosse 4 Rocket 3.6 17:29:45 13° S 17:32:08 20° SE 17:35:15 10° E
Tiangong -0.4 17:34:42 28° NNE 17:34:45 28° NNE 17:37:35 10° E
Cosmos 2233 Rocket 4.1 17:34:01 45° WSW 17:35:06 50° W 17:41:03 10° NNW
Spot 4 Rocket 3.9 17:29:58 10° N 17:35:07 75° WNW 17:37:18 36° SSW
H-2A R/B 4.0 17:32:45 20° NW 17:35:16 24° NNW 17:42:37 10° NE
Cosmos 1624 Rocket 4.1 17:37:51 51° W 17:38:06 51° WNW 17:43:11 10° N
Cosmos 2056 Rocket 3.7 17:41:52 46° W 17:42:06 46° WNW 17:47:12 10° N
Cosmos 2221 4.1 17:40:11 10° NNE 17:44:03 35° E 17:47:58 10° SSE
Cosmos 1452 Rocket 4.2 17:40:01 13° S 17:44:45 53° ESE 17:49:54 10° NE
Cosmos 1656 Rocket 4.2 17:46:05 36° WNW 17:46:05 36° WNW 17:50:51 10° N
DELTA 2 R/B (1) 3.5 17:46:25 41° W 17:48:27 81° N 17:54:03 10° E
CZ-2C R/B 3.9 17:46:00 10° NE 17:49:32 41° ESE 17:53:09 10° S
Cosmos 1048 Rocket 3.9 17:46:30 10° NNW 17:51:52 75° WSW 17:57:19 10° SSE
Helios 1B rocket 3.9 17:48:35 10° NE 17:52:11 35° ESE 17:55:51 10° S
Cosmos 2369 Rocket 2.5 17:51:25 36° WSW 17:52:51 44° WNW 17:58:11 10° N
Radarsat 4.5 17:51:46 10° NNE 17:57:00 87° WNW 18:02:18 10° SSW
Cosmos 2297 4.5 17:57:31 30° W 17:57:48 30° WNW 18:02:41 10° NNW
BREEZE-M DEB (TANK) 3.9 18:03:12 25° SW 18:05:08 36° S 18:15:07 10° ESE
Meteor 1-31 Rocket 3.2 18:01:46 10° NNE 18:05:29 59° ESE 18:09:18 10° S
SL-16 R/B 4.1 18:08:23 13° SSW 18:08:23 13° SSW 18:09:40 10° SSW
Cosmos 1603 3.7 18:04:37 10° NW 18:10:12 59° WSW 18:15:49 10° SSE
CORIOLIS 4.2 18:07:20 10° N 18:12:36 57° W 18:17:59 10° SSW
Cosmos 1110 Rocket 3.9 18:08:28 11° SSW 18:13:36 87° WNW 18:18:51 10° NNE
Lacrosse 5 rocket 3.3 18:11:31 11° S 18:13:37 16° SSE 18:16:01 10° ESE
SMAP 3.4 18:12:51 10° N 18:17:20 45° W 18:21:34 12° SSW
Centaur D-1A AC-31 3.5 18:15:40 10° NW 18:19:18 26° NNE 18:28:10 10° ENE
Cosmos 2034 Rocket 4.1 18:14:51 10° S 18:21:09 79° E 18:27:20 10° N
Cosmos 1943 3.9 18:18:20 10° WNW 18:23:18 31° WSW 18:28:20 10° S
Cosmos 1766 Rocket 4.0 18:20:34 10° S 18:24:57 64° E 18:29:18 10° NNE
Cosmos 1378 4.1 18:24:51 10° NW 18:32:30 - S 18:26:51 22° W
Meteor 1-26 Rocket 4.3 18:25:53 10° NNW 18:31:16 56° WSW 18:36:56 10° S
Cosmos 1933 4.5 18:28:28 10° NW 18:31:33 21° WSW 18:34:41 10° SSW
SKYMED 2 3.5 18:29:46 10° S 18:34:13 83° WSW 18:38:35 10° NNW
Meteor 2-16 Rocket 4.5 18:31:33 10° NNW 18:37:38 61° W 18:43:47 10° S
CZ-4B R/B 4.1 18:36:13 10° N 18:40:07 51° W 18:44:14 10° SSW
Cosmos 1818 3.8 18:39:47 10° NW 18:44:56 45° SW 18:50:07 10° SSE
IGS 5A 3.4 18:46:06 10° N 18:50:11 68° W 18:54:20 10° SSW
Cosmos 1726 2.2 18:47:33 10° S 18:50:42 61° E 18:53:49 10° NNE
H-2A R/B (2) 4.4 18:49:22 10° NNW 18:53:14 25° NE 19:04:08 10° E
USA 59 Rocket 1.7 18:49:59 10° SW 18:59:14 62° WNW 19:05:57 10° NNE
Tsikada Rocket 4.0 18:53:13 10° NNW 18:59:28 68° W 19:05:45 10° S
ADEOS Rocket 3.0 18:56:31 10° N 19:02:27 61° WNW 19:08:02 10° SSW
Cosmos 1833 Rocket 3.9 18:59:18 10° N 19:04:43 49° ENE 19:10:11 10° SE
Okean 3 Rocket 3.7 19:00:50 10° S 19:05:28 84° W 19:09:59 10° N
SL-8 R/B 4.1 19:00:47 10° WSW 19:05:31 56° NW 19:10:15 10° NE
Landsat 7 3.9 19:04:58 10° NNE 19:09:42 86° ESE 19:14:30 10° SSW
Lacrosse 4 Rocket 2.0 19:06:39 10° SW 19:10:33 38° WNW 19:14:20 10° N
